TimeMST,TemperatureF,Dew PointF,Humidity,Sea Level PressureIn,VisibilityMPH,Wind Direction,Wind SpeedMPH,Gust SpeedMPH,PrecipitationIn,Events,Conditions,WindDirDegrees,DateUTC
12:53 AM,50.0,45.0,83,30.10,10.0,ESE,4.6,-,N/A,,Clear,120,2011-11-17 07:53:00
1:53 AM,48.9,44.1,83,30.09,10.0,South,4.6,-,N/A,,Clear,170,2011-11-17 08:53:00
2:53 AM,46.9,44.1,90,30.08,10.0,South,3.5,-,N/A,,Clear,170,2011-11-17 09:53:00
3:53 AM,46.0,43.0,89,30.07,10.0,South,3.5,-,N/A,,Clear,170,2011-11-17 10:53:00
4:53 AM,46.9,43.0,86,30.07,10.0,SSE,5.8,-,N/A,,Clear,150,2011-11-17 11:53:00
5:53 AM,46.9,43.0,86,30.06,10.0,SSE,4.6,-,N/A,,Clear,160,2011-11-17 12:53:00
6:53 AM,48.0,42.1,80,30.08,10.0,Calm,Calm,-,N/A,,Clear,0,2011-11-17 13:53:00
7:53 AM,48.2,42.8,82,30.14,10.0,SSE,9.2,-,N/A,,Clear,160,2011-11-17 14:53:00
8:53 AM,54.0,44.1,69,30.09,10.0,SSE,4.6,-,N/A,,Clear,160,2011-11-17 15:53:00
9:53 AM,60.8,42.8,52,30.13,10.0,Calm,Calm,-,N/A,,Clear,0,2011-11-17 16:53:00
10:53 AM,66.9,44.1,44,30.04,10.0,NNW,8.1,-,N/A,,Clear,340,2011-11-17 17:53:00
11:53 AM,70.0,41.0,35,30.00,10.0,North,5.8,-,N/A,,Clear,10,2011-11-17 18:53:00
12:53 PM,73.0,37.9,28,29.96,10.0,Variable,3.5,-,N/A,,Clear,0,2011-11-17 19:53:00
1:53 PM,75.0,36.0,24,29.94,10.0,East,4.6,-,N/A,,Clear,80,2011-11-17 20:53:00
2:53 PM,75.0,35.1,23,29.92,10.0,NNE,3.5,-,N/A,,Clear,20,2011-11-17 21:53:00
3:53 PM,73.9,34.0,23,29.91,10.0,WNW,3.5,-,N/A,,Clear,300,2011-11-17 22:53:00
4:53 PM,73.0,35.1,25,29.90,10.0,NNW,3.5,-,N/A,,Clear,330,2011-11-17 23:53:00
5:53 PM,66.0,39.0,37,29.91,10.0,West,4.6,-,N/A,,Clear,280,2011-11-18 00:53:00
6:53 PM,66.0,39.0,37,29.92,10.0,West,3.5,-,N/A,,Clear,280,2011-11-18 01:53:00
7:53 PM,62.1,39.9,44,29.93,10.0,Calm,Calm,-,N/A,,Clear,0,2011-11-18 02:53:00
8:53 PM,57.9,42.1,56,29.94,10.0,SSE,4.6,-,N/A,,Clear,160,2011-11-18 03:53:00
9:53 PM,57.0,43.0,59,29.94,10.0,South,4.6,-,N/A,,Clear,170,2011-11-18 04:53:00
10:53 PM,53.1,44.1,71,29.94,10.0,SE,5.8,-,N/A,,Clear,140,2011-11-18 05:53:00
11:53 PM,52.0,43.0,71,29.93,10.0,SSE,5.8,-,N/A,,Clear,150,2011-11-18 06:53:00